Regional Weather Roundup
Issued by NWS Mobile, AL

Home | Current Version | Previous Version | Text Only | Print | Product List | Glossary On
Versions: 1 2 3 4 5 6 7 8 9 10 11 12 13 14 15 16 17 18 19 20 21 22 23 24 25 26 27 28 29 30 31 32 33 34 35 36 37 38 39 40 41 42 43 44 45 46 47 48 49 50
000
ASUS44 KMOB 290912
RWRMOB
REGIONAL WEATHER ROUNDUP
NATIONAL WEATHER SERVICE MOBILE AL
400 AM CDT THU SEP 29 2016

NOTE: "FAIR" INDICATES FEW OR NO CLOUDS BELOW 12,000 FEET WITH NO
      SIGNIFICANT WEATHER AND/OR OBSTRUCTIONS TO VISIBILITY.

  * THESE STATIONS ARE PART OF THE UNIVERSITY OF SOUTH ALABAMA
    MESONET AND ARE NOT UNDER NWS OR FAA QUALITY CONTROL.

ALZ061>064-291000-
COASTAL ALABAMA

CITY           SKY/WX    TMP DP  RH WIND       PRES   REMARKS
MOBILE REG APT CLEAR     67  65  93 W3        29.99S
BROOKLEY FIELD CLEAR     70  68  93 W3        29.99S
USA CAMPUS*    NOT AVBL
DOG RIVER*     NOT AVBL


CITY           SKY/WX    TMP DP  RH WIND       PRES   REMARKS
MOUNT VERNON*  NOT AVBL
SARALAND*      NOT AVBL
BAY MINETTE*   NOT AVBL
LOXLEY*        NOT AVBL
ROBERTSDALE*   NOT AVBL
FAIRHOPE*      NOT AVBL
ELBERTA*       NOT AVBL
FOLEY*         NOT AVBL
GRAND BAY*     NOT AVBL
DAUPHIN ISLND* NOT AVBL
BON SCOUR NWR* NOT AVBL
GULF SHORES    CLEAR     71  70  96 NW7       29.97S

$$

ALZ051>060-291000-
INTERIOR SOUTHWEST AND SOUTH CENTRAL ALABAMA

CITY           SKY/WX    TMP DP  RH WIND       PRES   REMARKS
GREENVILLE     PTCLDY    64  59  83 CALM      29.95S
EVERGREEN        N/A     64  63  96 CALM      29.97S FOG
CASTLEBERRY*   NOT AVBL
ATMORE*        NOT AVBL
DIXIE*         NOT AVBL
ANDALUSIA/OPP  PTCLDY    71  65  81 CALM      29.96S
ANDALUSIA*     NOT AVBL
FLORALA APT    LGT RAIN  68  65  90 CALM      29.98S
FLORALA*       NOT AVBL

$$

FLZ001>006-291000-
WESTERN FLORIDA PANHANDLE

CITY           SKY/WX    TMP DP  RH WIND       PRES   REMARKS
PENSACOLA      CLEAR     73  66  78 NW5       29.96F
NAS PENSACOLA  NOT AVBL
MILTON         CLEAR     69  68  96 NW5       29.96F
WHTNG S FIELD  NOT AVBL


CITY           SKY/WX    TMP DP  RH WIND       PRES   REMARKS
WALNUT HILL*   NOT AVBL
JAY*           NOT AVBL
CRESTVIEW      PTCLDY    67  66  97 CALM      29.97S FOG
VALPARAISO     NOT AVBL
DESTIN         CLEAR     80  69  69 NW5       29.95S

$$

MSZ076-079-291000-
INTERIOR SOUTHEAST MISSISSIPPI

CITY           SKY/WX    TMP DP  RH WIND       PRES   REMARKS
LEAKESVILLE*   NOT AVBL
AGRICOLA*      NOT AVBL

$$

MARINE OBSERVATIONS

STATION/POSITION TIME  TEMP    WIND        PRES    WAVE
                       AIR SEA DIR/SP/G            HT/PER
                 (UTC) (F)     (DEG/KT/KT) (MB)    (FT/S)
PASCAGOULA       0800   74     340/  6/  7 1015.0S
PETIT BOIS ISLND 0800   79     340/ 14/ 16 1015.8R
GRAND BAY        0745   74     330/  5     1016.0S
KATRINA CUT      0800   78     350/ 15     1014.9S
CEDAR POINT      0800   75     340/ 10     1014.9S
E DAUPHIN ISLAND 0800   79     330/ 14/ 15 1014.9S
MIDDLE BAY LIGHT 0800   79     330/ 14     1015.2R
USCG MOBILE BAY  0800   73 85  280/  3/  4 1015.6R
STATE DOCKS      0800   73 86              1014.9S
MEAHER PARK      0800   74     320/  2     1015.2R
WEEKS BAY        0700   72                   N/A
FORT MORGAN      0800   79     340/ 15/ 17 1014.5R
12 S ORANGE BCH  0850   81 86  340/ 14/ 16 1014.7R   2/ 3
PENSACOLA BAY    0800   76 86  330/  4/  7 1014.8F
64 S DAUPHIN ISL 0800   83 85  260/  8/ 12 1014.6S
67 S FORT MORGAN 0830   82     270/  6     1014.9F

$$

SELECTED LOCATIONS ACROSS THE REGION

CITY           SKY/WX    TMP DP  RH WIND       PRES   REMARKS
NEW ORLEANS    PTCLDY    76  71  85 NW5       30.00S
GULFPORT       CLEAR     69  68  96 CALM      29.98S
PASCAGOULA AP  CLEAR     64  64 100 CALM      29.98S FOG
PASCAGOULA*    NOT AVBL
HATTIESBURG    CLEAR     64  63  96 CALM      29.99S
LAUREL         CLEAR     64  61  88 W3        30.00R
MERIDIAN       CLEAR     61  55  81 N6        30.00R
JACKSON        CLEAR     68  55  63 N12       30.01R
MONTGOMERY     CLEAR     65  56  72 SW5       29.95R
TROY           PTCLDY    63  61  93 CALM      29.96S
KINSTON*       NOT AVBL
GENEVA*        NOT AVBL
ASHFORD*       NOT AVBL
DOTHAN         MOCLDY    72  70  93 W6        29.98S
PANAMA CITY    CLEAR     73  69  87 NW3       29.94F

$$




USA.gov is the U.S. government's official web portal to all federal, state and local government web resources and services.